Погода в Красных Баррикадах

Россия / Астраханская область     46°12′16″N   47°51′30″E
темп.,
°C
ветер,
м/с
пор.,
м/с
влажн.,
%
обл.,
%
осадки,
мм/ч
давл.,
гПа
погр.,
м
10 августа, ср
ср1001:00+26зюз33401 0.0 101422
04:00+25в22405 0.0 101413
07:00+25в36450 0.0 1014159
10:00+32в45290 0.0 1014848
13:00+36вюв77200 0.0 10133063
16:00+35юв98220 0.0 10122629
19:00+32вюв79240 0.0 10121252
22:00+26вюв47350 0.0 1013137
11 августа, чт
чт1101:00+25в49460 0.0 1012154
04:00+25в512430 0.0 1011219
07:00+26в613480 0.0 1012357
10:00+34юв8112393 0.0 10131990
13:00+36юв10111985 0.0 10122782
16:00+36юв910171 0.0 10122438
19:00+33юв68210 0.0 10121110
22:00+27вюв483531 0.0 1013123
12 августа, пт
пт1201:00+26в483951 0.0 1013120
04:00+26в594394 0.0 1013147
07:00+27всв484395 0.0 1014183
10:00+34юв452574 0.0 10141098
13:00+37ю771799 0.0 10143238
16:00+36ююв981773 0.0 10132417
19:00+33ююв6822100 0.0 1014769
22:00+28юв333534 0.0 101545
13 августа, сб
сб1301:00+26в333457 0.0 101531
04:00+25всв453423 0.0 101571
07:00+26всв5103472 0.0 1015197
10:00+35вюв7102028 0.0 10142290
13:00+37юв991626 0.0 10142981
16:00+36юв891772 0.0 10132709
19:00+34юв672054 0.0 1013955
22:00+28вюв33285 0.0 101222
14 августа, вс
вс1401:00+27в47290 0.0 1012112
04:00+27в59300 0.0 1012143
07:00+26в511400 0.0 1012238
10:00+35в89230 0.0 10121226
13:00+37вюв89180 0.0 10113196
16:00+37вюв88170 0.0 10103030
19:00+34вюв68200 0.0 1010629
22:00+28вюв47300 0.0 1011109